Flag for U.S.A. Weather past 2 weeks in Evansville, Indiana, U.S.A.

Now
68 °F

Passing clouds.


Feels Like: 68 °F
Forecast: 61 / 68 °F
Wind: 5 mph from Northeast

Location: Evansville Regional Airport

Current Time: Apr 18, 2015 at 11:55:26 PM

Latest Report: Apr 18, 2015 at 10:54 PM


Visibility: 10 mi

Pressure: 29.87 "Hg

Humidity: 55%

Dew point: 51 °F

Location of EvansvilleLocation

Historic Weather in Evansville — Graph

°F

Evansville temperature yesterday

Maximum temperature yesterday: 76 °F (at 5:54 PM)
Minimum temperature yesterday: 60 °F (at 11:54 PM)
Average temperature yesterday: 68 °F

Past Weeks' High & Low Weather Summary

 TemperatureHumidityPressure
High81 °F (Apr 9, 4:54 PM)97% (Apr 16, 7:54 AM)30.43 "Hg (Apr 16, 7:54 AM)
Low35 °F (Apr 5, 6:54 AM)24% (Apr 5, 2:54 PM)29.71 "Hg (Apr 9, 9:54 PM)
Average62 °F65%30.07 "Hg
* Reported Apr 3 9:54 PM — Apr 18 9:54 PM, Evansville, Weather by CustomWeather, © 2015

Note: Actual official high and low records may vary slightly from our data, if they occured in-between our weather recording intervals... More about our weather records

Advertising

Evansville weather history for previous 24 hours

 ConditionsComfort  
Time TempWeatherWind HumidityBarometerVisibility
9:54 PM
Sat, Apr 18
68 °FPassing clouds.3 mph57%29.89 "Hg10 mi
8:54 PM69 °FClear.7 mph59%29.88 "Hg10 mi
7:54 PM71 °FClear.3 mph57%29.88 "Hg10 mi
6:54 PM75 °FSunny.5 mph50%29.87 "Hg10 mi
5:54 PM78 °FSunny.7 mph40%29.88 "Hg10 mi
4:54 PM80 °FSunny.6 mph36%29.88 "Hg10 mi
3:54 PM80 °FSunny.9 mph38%29.90 "Hg10 mi
2:54 PM80 °FPassing clouds.10 mph39%29.93 "Hg10 mi
1:54 PM78 °FPassing clouds.3 mph43%29.96 "Hg10 mi
12:54 PM77 °FPassing clouds.3 mph45%29.99 "Hg10 mi
11:54 AM76 °FPassing clouds.5 mph54%30.01 "Hg10 mi
10:54 AM73 °FSunny.5 mph64%30.01 "Hg7 mi
9:54 AM70 °FSunny.6 mph71%30.01 "Hg7 mi
8:54 AM64 °FSunny.5 mph78%30.01 "Hg4 mi
7:54 AM60 °FFog.No wind86%30.03 "Hg3 mi
6:54 AM57 °FFog.No wind90%30.02 "Hg3 mi
5:54 AM55 °FFog.3 mph93%30.03 "Hg3 mi
4:54 AM57 °FFog.No wind90%30.00 "Hg3 mi
3:54 AM58 °FFog.No wind90%30.00 "Hg3 mi
2:54 AM58 °FFog.No wind93%30.01 "Hg2 mi
1:54 AM59 °FFog.No wind90%30.02 "Hg3 mi
12:54 AM60 °FFog.No wind90%30.03 "Hg4 mi
11:54 PM
Fri, Apr 17
60 °FFog.6 mph90%30.04 "Hg4 mi
Weather by CustomWeather, © 2015

See weather overviewHow to use our weather pages